Location: Ferintosh
(52.7647°N, 112.9692°W)
Time: 05:07:08
(UTC+00:00)

Vanguard 2 - All Passes

Search period start: 24 May 2024 00:00
Search period end: 03 June 2024 00:00
Orbit: 552 x 2914 km, 32.9° (Epoch: 23 May)

Date Brightness Start Highest point End Pass type
(mag) Time Alt. Az. Time Alt. Az. Time Alt. Az.
30 May - 21:46:50 10° S 21:47:15 10° S 21:47:40 10° S daylight
31 May - 21:59:25 10° SSW 22:01:12 11° S 22:02:50 10° S daylight
01 Jun - 20:04:36 10° SSW 20:07:58 12° S 20:10:51 10° SSE daylight
01 Jun - 22:13:01 10° SSW 22:15:07 11° SSW 22:17:01 10° S daylight
02 Jun - 20:17:20 10° SSW 20:21:56 15° S 20:25:41 10° SE daylight
02 Jun - 22:27:01 10° SSW 22:29:00 11° SSW 22:30:47 10° S daylight
